CHINASAT 12 (ZX 12) (39017 NORAD) Tracking and Keplerian Element Data

This shows tracking and keplerian element data for the satellite.

Feedback or suggestion? Click here.




ElementValue
Catalog39017
NameCHINASAT 12 (ZX 12)
Epoch Orbit2196
Epoch Day323.05669684
Epoch Year2018
RAAN107.0506
Inclination0.0319
Eccentricity0.0003027
Argument of Perigee125.1837
Mean Anonmoly293.7515
Mean Motion1.00271343
Decay Rate-1.97E-06
L11 39017U 12067A 18323.05669684 -.00000197 00000-0 00000+0 0 9994
L22 39017 0.0319 107.0506 0003027 125.1837 293.7515 1.00271343 21964

Live tracking and technical data element details for CHINASAT 12 (ZX 12) (NORAD 39017). CHINASAT 12 (ZX 12) can be tracked NOW for your location showing map with azimuth and elevation plus other details from your city location.

Track the satellite on the map from your city or location and see movement details for azimuth, elevation, latitude, longitude, range, height, and movement on the map or in text.







IsCatalogInMostPopularTable: catalog: 39017, numindb: 111
Update: records affected: 1



GetName: 39017 CHINASAT 12 (ZX 12)

Hit Count: updated at: Mon, 19 Nov 2018 13:04:54 GMT